Weather History for Weslaco, TX

Change the Weather History Date:

Monday, May 20, 2013

  Actual Average (KMFE) Record (KMFE)
Temperature  
Mean Temperature 84 °F 83 °F  
Max Temperature 92 °F 93 °F 100 °F (2011)
Min Temperature 76 °F 73 °F 60 °F (1952)
Degree Days  
Heating Degree Days 0 0  
Month to date heating degree days 0  
Since 1 July heating degree days 579  
Cooling Degree Days 19 18  
Month to date cooling degree days 318  
Year to date cooling degree days 1049  
Growing Degree Days 34 (Base 50)    
Moisture  
Dew Point 71 °F    
Average Humidity 69    
Maximum Humidity 86    
Minimum Humidity 46    
Precipitation  
Precipitation 0.00 in 0.07 in 1.11 in (1970)
Month to date precipitation 1.44  
Year to date precipitation 5.97  
Sea Level Pressure  
Sea Level Pressure 29.75 in    
Wind  
Wind Speed 14 mph (SSE)    
Max Wind Speed 25 mph    
Max Gust Speed 32 mph    
Visibility 8 miles    
Events      
T = Trace of Precipitation, MM = Missing Value Source: NWS Daily Summary

Daily Weather History Graph

Daily Weather History Graph

Search for Another Location

Airport:

Trip Planner

Search our weather history database for the weather conditions in past years. The results will help you decide how hot, cold, wet, or windy it might be!

Date:

Astronomy

May. 20, 2013 Rise Set
Actual Time 6:43 AM CDT 8:14 PM CDT
Civil Twilight 6:17 AM CDT 8:39 PM CDT
Nautical Twilight 5:47 AM CDT 9:09 PM CDT
Astronomical Twilight 5:16 AM CDT 9:41 PM CDT
Moon 3:48 PM CDT (5/20) 3:10 AM CDT (5/20)
Length of Visible Light 14h 21m
Length of Day
13h 31m
Waxing Gibbous, 75% of the Moon is Illuminated
May 20
Waxing Gibbous
May 24
Full
May 31
Last Quarter
Jun 8
New
Jun 16
First Quarter

Hourly Weather History & Observations

Time (CDT) Temp. Heat Index Dew Point Humidity Pressure Visibility Wind Dir Wind Speed Gust Speed Precip Events Conditions
12:15 AM 76.6 °F - 72.1 °F 86% 29.80 in 7.0 mi SE 10.4 mph 17.3 mph N/A   Overcast
12:35 AM 76.8 °F - 72.1 °F 85% 29.79 in 7.0 mi SSE 13.8 mph 18.4 mph N/A   Overcast
12:55 AM 77.0 °F - 72.1 °F 85% 29.79 in 10.0 mi SE 11.5 mph 16.1 mph N/A   Overcast
1:15 AM 77.2 °F - 72.0 °F 84% 29.79 in 10.0 mi SSE 16.1 mph 20.7 mph N/A   Overcast
1:35 AM 77.4 °F - 71.6 °F 82% 29.78 in 10.0 mi SSE 10.4 mph 18.4 mph N/A   Overcast
1:55 AM 77.4 °F - 71.6 °F 82% 29.78 in 10.0 mi SSE 9.2 mph - N/A   Overcast
2:15 AM 77.4 °F - 71.6 °F 82% 29.78 in 10.0 mi SSE 11.5 mph 17.3 mph N/A   Overcast
2:35 AM 77.4 °F - 71.6 °F 82% 29.77 in 10.0 mi SSE 9.2 mph - N/A   Overcast
3:15 AM 77.2 °F - 71.6 °F 83% 29.76 in 10.0 mi SSE 11.5 mph 18.4 mph N/A   Overcast
3:35 AM 77.0 °F - 71.6 °F 83% 29.75 in 10.0 mi SSE 11.5 mph 17.3 mph N/A   Overcast
3:55 AM 77.0 °F - 71.6 °F 83% 29.75 in 10.0 mi SSE 10.4 mph - N/A   Overcast
4:35 AM 77.0 °F - 71.6 °F 83% 29.75 in 10.0 mi SSE 10.4 mph 17.3 mph N/A   Overcast
4:55 AM 77.0 °F - 71.6 °F 83% 29.75 in 10.0 mi SSE 12.7 mph 17.3 mph N/A   Overcast
5:15 AM 77.0 °F - 71.2 °F 82% 29.75 in 10.0 mi SSE 11.5 mph 17.3 mph N/A   Overcast
5:35 AM 77.0 °F - 71.1 °F 82% 29.75 in 10.0 mi SE 11.5 mph 17.3 mph N/A   Overcast
5:55 AM 77.0 °F - 71.1 °F 82% 29.75 in 7.0 mi SE 12.7 mph 19.6 mph N/A   Overcast
6:15 AM 77.2 °F - 71.2 °F 82% 29.75 in 7.0 mi SSE 11.5 mph 17.3 mph N/A   Overcast
6:35 AM 77.0 °F - 71.1 °F 82% 29.77 in 7.0 mi SE 10.4 mph 18.4 mph N/A   Overcast
7:15 AM 77.0 °F - 71.6 °F 83% 29.79 in 7.0 mi SSE 10.4 mph - N/A   Overcast
7:35 AM 77.4 °F - 71.6 °F 82% 29.79 in 5.0 mi SE 9.2 mph - N/A   Haze
7:55 AM 78.1 °F - 71.6 °F 80% 29.80 in 5.0 mi SSE 10.4 mph 16.1 mph N/A   Haze
8:15 AM 78.8 °F - 71.6 °F 78% 29.80 in 4.0 mi SSE 15.0 mph 20.7 mph N/A   Haze
8:35 AM 79.2 °F - 71.6 °F 78% 29.80 in 5.0 mi SSE 13.8 mph 19.6 mph N/A   Haze
9:15 AM 80.6 °F 84.6 °F 71.6 °F 74% 29.80 in 4.0 mi SSE 15.0 mph 21.9 mph N/A   Haze
9:35 AM 80.6 °F 84.2 °F 70.9 °F 72% 29.80 in 5.0 mi SSE 18.4 mph 25.3 mph N/A   Haze
9:55 AM 81.5 °F 85.5 °F 71.1 °F 70% 29.80 in 5.0 mi SSE 19.6 mph 25.3 mph N/A   Haze
10:35 AM 83.3 °F 87.9 °F 71.1 °F 66% 29.79 in 5.0 mi SSE 21.9 mph 27.6 mph N/A   Haze
10:55 AM 83.8 °F 88.6 °F 71.1 °F 65% 29.78 in 5.0 mi SSE 19.6 mph 28.8 mph N/A   Haze
11:15 AM 85.3 °F 90.4 °F 70.9 °F 62% 29.78 in 5.0 mi SSE 25.3 mph 32.2 mph N/A   Haze
11:35 AM 86.7 °F 92.5 °F 71.2 °F 60% 29.78 in 5.0 mi SE 23.0 mph 29.9 mph N/A   Haze
11:55 AM 86.9 °F 92.9 °F 71.6 °F 60% 29.77 in 5.0 mi SSE 19.6 mph 29.9 mph N/A   Haze
12:15 PM 87.4 °F 93.5 °F 71.4 °F 59% 29.77 in 5.0 mi SE 19.6 mph 29.9 mph N/A   Haze
12:35 PM 88.0 °F 94.2 °F 71.6 °F 58% 29.78 in 4.0 mi SSE 19.6 mph 26.5 mph N/A   Haze
12:55 PM 88.9 °F 95.1 °F 71.6 °F 56% 29.77 in 5.0 mi SSE 18.4 mph 26.5 mph N/A   Haze
1:15 PM 90.0 °F 96.9 °F 71.8 °F 55% 29.76 in 5.0 mi SSE 16.1 mph 24.2 mph N/A   Haze
1:55 PM 91.6 °F 97.7 °F 70.3 °F 50% 29.74 in 7.0 mi South 19.6 mph 27.6 mph N/A   Scattered Clouds
2:15 PM 91.0 °F 97.1 °F 70.3 °F 51% 29.74 in 7.0 mi SSE 15.0 mph 26.5 mph N/A   Scattered Clouds
2:35 PM 91.2 °F 97.0 °F 70.0 °F 50% 29.73 in 7.0 mi SSE 17.3 mph 25.3 mph N/A   Scattered Clouds
2:55 PM 92.1 °F 97.7 °F 70.0 °F 48% 29.73 in 7.0 mi SSE 17.3 mph 25.3 mph N/A   Clear
3:15 PM 91.8 °F 97.5 °F 70.0 °F 49% 29.72 in 7.0 mi SSE 15.0 mph 27.6 mph N/A   Clear
3:35 PM 91.8 °F 97.0 °F 69.8 °F 48% 29.71 in 7.0 mi SSE 19.6 mph 24.2 mph N/A   Clear
3:55 PM 91.8 °F 97.0 °F 69.8 °F 48% 29.70 in 7.0 mi SE 20.7 mph 26.5 mph N/A   Clear
4:15 PM 91.4 °F 96.3 °F 68.9 °F 48% 29.70 in 7.0 mi SE 16.1 mph 24.2 mph N/A   Clear
4:35 PM 91.4 °F 95.8 °F 68.4 °F 47% 29.70 in 7.0 mi SSE 20.7 mph 27.6 mph N/A   Clear
4:55 PM 91.2 °F 96.0 °F 69.1 °F 48% 29.70 in 7.0 mi SSE 17.3 mph 23.0 mph N/A   Clear
5:15 PM 90.7 °F 94.1 °F 67.5 °F 46% 29.69 in 7.0 mi SSE 19.6 mph 26.5 mph N/A   Clear
5:35 PM 90.0 °F 92.8 °F 66.9 °F 46% 29.68 in 7.0 mi SE 20.7 mph 27.6 mph N/A   Clear
5:55 PM 89.8 °F 92.5 °F 66.4 °F 46% 29.69 in 7.0 mi SSE 18.4 mph 28.8 mph N/A   Clear
6:15 PM 89.2 °F 91.6 °F 66.2 °F 46% 29.68 in 7.0 mi SSE 17.3 mph 26.5 mph N/A   Clear
6:35 PM 88.7 °F 91.5 °F 66.7 °F 48% 29.68 in 7.0 mi SSE 17.3 mph 25.3 mph N/A   Clear
6:55 PM 87.8 °F 91.1 °F 67.6 °F 51% 29.68 in 7.0 mi SE 15.0 mph 25.3 mph N/A   Clear
7:15 PM 87.1 °F 89.9 °F 67.1 °F 51% 29.69 in 10.0 mi SSE 17.3 mph 24.2 mph N/A   Clear
7:35 PM 86.0 °F 89.1 °F 67.5 °F 54% 29.70 in 10.0 mi SSE 16.1 mph 21.9 mph N/A   Clear
7:55 PM 84.6 °F 87.9 °F 68.5 °F 58% 29.71 in 10.0 mi SSE 15.0 mph 24.2 mph N/A   Clear
8:15 PM 83.3 °F 87.4 °F 69.8 °F 64% 29.72 in 10.0 mi SSE 13.8 mph 21.9 mph N/A   Clear
8:35 PM 82.2 °F 86.4 °F 70.7 °F 68% 29.73 in 10.0 mi SE 8.1 mph 17.3 mph N/A   Clear
9:15 PM 79.9 °F - 71.6 °F 76% 29.75 in 10.0 mi SE 13.8 mph 20.7 mph N/A   Clear
9:35 PM 79.3 °F - 72.0 °F 78% 29.75 in 10.0 mi SE 9.2 mph 18.4 mph N/A   Clear
9:55 PM 78.8 °F - 72.1 °F 80% 29.75 in 10.0 mi SE 10.4 mph 16.1 mph N/A   Clear
10:15 PM 78.1 °F - 72.1 °F 82% 29.76 in 10.0 mi SSE 8.1 mph - N/A   Clear
10:35 PM 77.9 °F - 72.5 °F 83% 29.75 in 10.0 mi SE 11.5 mph - N/A   Clear
10:55 PM 77.7 °F - 72.5 °F 84% 29.75 in 10.0 mi SE 10.4 mph - N/A   Scattered Clouds
11:15 PM 77.5 °F - 72.5 °F 84% 29.75 in 7.0 mi SE 11.5 mph 17.3 mph N/A   Scattered Clouds
11:35 PM 77.4 °F - 72.5 °F 85% 29.75 in 7.0 mi SE 11.5 mph 17.3 mph N/A   Scattered Clouds
11:55 PM 77.4 °F - 72.5 °F 85% 29.75 in 7.0 mi SE 11.5 mph 17.3 mph N/A   Mostly Cloudy